Location: Dead Woman Crossing
(43.5369°N, 106.3228°W)
Time: 10:37:48
(UTC+00:00)

QB50P2 - Visible Passes

Search period start: 25 June 2022 00:00
Search period end: 05 July 2022 00:00
Orbit: 589 x 607 km, 97.9° (Epoch: 24 June)

Date Brightness Start Highest point End Pass type
(mag) Time Alt. Az. Time Alt. Az. Time Alt. Az.
25 Jun ? 07:11:10 10° ENE 07:12:02 11° E 07:12:36 10° E visible
25 Jun ? 08:43:56 10° N 08:48:09 71° WNW 08:49:18 46° SW visible
26 Jun ? 07:20:25 10° ENE 07:22:38 14° E 07:23:11 14° E visible
26 Jun ? 08:54:29 10° N 08:58:36 54° WNW 08:59:54 38° SW visible
27 Jun ? 07:30:18 10° NE 07:33:12 18° E 07:33:46 17° ESE visible
27 Jun ? 09:05:03 10° N 09:09:02 41° WNW 09:10:29 30° WSW visible
28 Jun ? 07:40:23 10° NE 07:43:46 23° E 07:44:21 22° ESE visible
28 Jun ? 09:15:41 10° N 09:19:28 32° WNW 09:21:03 24° WSW visible
29 Jun ? 07:50:35 10° NE 07:54:19 29° E 07:54:56 28° ESE visible
29 Jun ? 09:26:21 10° NNW 09:29:52 26° WNW 09:31:38 19° WSW visible
30 Jun ? 08:00:52 10° NNE 08:04:50 37° E 08:05:30 35° ESE visible
30 Jun ? 09:37:06 10° NNW 09:40:14 21° WNW 09:42:12 15° W visible
01 Jul ? 08:11:12 10° NNE 08:15:20 49° E 08:16:04 44° SE visible
01 Jul ? 09:47:56 10° NNW 09:50:36 17° WNW 09:52:46 12° W visible
02 Jul ? 08:21:35 10° NNE 08:25:49 65° ESE 08:26:37 52° SSE visible
02 Jul ? 09:58:57 10° NNW 10:00:57 13° WNW 10:02:57 10° W visible
03 Jul ? 08:32:01 10° NNE 08:36:17 85° ESE 08:37:11 55° S visible
03 Jul ? 10:10:34 10° NW 10:11:16 10° WNW 10:11:58 10° WNW visible
04 Jul ? 07:10:29 10° E 07:10:35 10° E 07:10:42 10° E visible
04 Jul ? 08:42:29 10° N 08:46:44 75° WNW 08:47:44 51° SW visible
